Preview of NWS' New Version of Forecast
This preview is not operational and should not be used for support decisions.
Latest weather observations around

Joplin, Joplin Regional Airport (KJLN)

Using English Units (Switch to International System of Units)
Date/ Time (CDT) Wind (mph) Vis. (mi) Weather Sky Cond. Temp (°F) Rel. Humidity Wind Chill (°F) Heat Index (°F) Pressure Precip. (in)
Air Dwpt 6 hour Altimeter (inHg) Sea level (inHg) 1 hr 3 hr 6 hr
Max Min
Aug 20 17:53 WSW 6 10 Clear CLR 92 76     60%   104 29.99 29.95      
Aug 20 16:53 W 8 10 Clear CLR 93 74     54%   103 29.98 29.94      
Aug 20 15:53 WSW 6 10 Clear CLR 93 74     54%   103 30.01 29.97      
Aug 20 14:53 WSW 9 10 Clear CLR 93 75     56%   105 30.04 30      
Aug 20 13:53 W 10 10 Clear CLR 92 78     64%   107 30.04 30      
Aug 20 12:53 SSW 13 10 Clear CLR 91 76     61%   103 30.03 29.98      
Aug 20 11:53 SW 15 10 Clear CLR 90 77     66%   103 30.03 29.99      
Aug 20 10:53 SW 10 10 Clear CLR 88 75     66%   98 30.04 30      
Aug 20 09:53 SSW 13 10 Clear CLR 86 75     70%   95 30.05 30.01      
Aug 20 08:53 SSW 5 10 Clear CLR 84 75     74%   92 30.06 30.02      
Aug 20 07:53 SSW 5 10 Clear CLR 81 74     79%   86 30.04 30      
Aug 20 06:53 SSW 5 10 Clear CLR 77 72     84%   78 30.02 29.97      
Aug 20 05:53 S 8 10 Clear CLR 77 73     88%   79 29.99 29.95      
Aug 20 04:53 S 10 10 Clear CLR 79 73     82%   82 30 29.96      
Aug 20 03:53 S 10 10 Clear CLR 80 73     79%   84 30.01 29.97      
Aug 20 02:53 S 9 10 Clear CLR 81 73     77%   86 30.01 29.97      
Aug 20 01:53 SSE 11 10 Clear CLR 81 71     72%   85 30 29.96      
Aug 20 00:53 SSE 9 10 Clear   81 71     72%   85 30.01 29.97      
Aug 19 23:53 SSE 7 10 Clear CLR 81 71     72%   85 30.01 29.97      
Aug 19 22:53 S 7 10 Clear CLR 83 75     77%   90 30.01 29.97      
Aug 19 21:53 SSE 6 10 Clear CLR 83 76     79%   91 29.99 29.95      
Aug 19 20:53 SSE 5 10 Clear CLR 85 76     75%   94 29.96 29.92      
Aug 19 19:53 SSE 3 10 Clear CLR 87 76     70%   98 29.95 29.92      
Aug 19 18:53 SE 6 10 Clear CLR 91 75     60%   102 29.95 29.92      
Aug 19 17:53 SSE 5 10 Clear CLR 92 77     62%   106 29.97 29.93      
Aug 19 16:53 6 10 Clear CLR 93 75     56%   105 29.97 29.93      
Aug 19 15:53 S 5 10 Clear CLR 93 76     58%   106 29.98 29.94      
Aug 19 14:53 S 8 10 Clear CLR 92 76     60%   104 30 29.96      
Aug 19 13:53 S 8 10 Clear CLR 92 76     60%   104 30.01 29.97      
Aug 19 12:53 SW 9 10 Clear CLR 91 76     61%   103 30.02 29.98      
Aug 19 11:53 5 10 Clear CLR 90 77     66%   103 30.03 29.99      
Aug 19 10:53 5 10 Clear CLR 87 75     68%   97 30.03 29.99      
Aug 19 09:53 5 10 Clear CLR 86 75     70%   95 30.02 29.98      
Aug 19 08:53 S 5 10 Clear CLR 82 74     77%   88 30.01 29.98      
Aug 19 07:53 3 10 Clear CLR 78 71     79%   79 30.01 29.97      
Aug 19 06:53 5 10 Clear CLR 75 70     84%   76 29.99 29.96      
Aug 19 05:53 5 10 Mostly Clear FEW070 76 70     82%   77 29.98 29.94      
Aug 19 04:53 SSE 5 10 Mostly Cloudy SCT070 BKN085 77 69     77%   78 29.97 29.93      
Aug 19 03:53 S 7 10 Mostly Cloudy SCT070 BKN085 76 69     79%   77 29.95 29.91      
Aug 19 02:53 S 8 10 Mostly Clear FEW075 77 69     77%   78 29.95 29.91      
Aug 19 01:53 SSE 7 10 Clear CLR 76 70     82%   77 29.95 29.91      
Aug 19 00:53 SSE 5 10 Cloudy BKN060 OVC080 78 70     76%   79 29.95 29.91      
Aug 18 23:53 SSE 6 10 Mostly Cloudy FEW050 BKN080 79 70     74%   82 29.94 29.91      
Aug 18 22:53 SSE 6 10 Mostly Cloudy SCT050 SCT060 BKN070 78 72     82%   79 29.94 29.91      
Aug 18 21:53 ESE 5 10 Partly Cloudy SCT060 78 72     82%   79 29.93 29.9      
Aug 18 20:53 SE 3 10 Clear CLR 79 72     79%   82 29.91 29.88      
Aug 18 19:53 SSE 5 10 Clear CLR 81 74     79%   86 29.9 29.86      
Aug 18 18:53 6 10 Mostly Clear FEW100 85 73     68%   92 29.88 29.85      
Aug 18 17:53 WSW 5 10 Clear CLR 88 73     61%   96 29.88 29.84      
Aug 18 16:53 5 10 Mostly Clear FEW032 88 76     68%   99 29.89 29.85      
Aug 18 15:53 Calm 10 Clear CLR 88 75     66%   98 29.89 29.85      
Aug 18 14:53 5 10 Mostly Clear FEW110 87 74     65%   95 29.89 29.85      
Aug 18 13:53 S 13 10 Mostly Clear FEW120 85 75     72%   93 29.88 29.84      
Aug 18 12:53 S 10 10 Mostly Clear FEW120 83 75     77%   90 29.87 29.83      
Aug 18 11:53 SE 8 10 Mostly Clear FEW095 FEW110 78 73     85%   80 29.86 29.83      
Aug 18 10:53 SSW 14 10 Clear CLR 78 74     87%   80 29.94 29.91      
Aug 18 09:53 W 8 10 Clear CLR 77 73     88%   79 29.95 29.91      
Aug 18 08:53 S 9 10 Clear CLR 76 72     88%   77 29.9 29.86      
Aug 18 07:53 5 10 Clear CLR 72 69     91%   73 29.86        
Aug 18 07:24 3 10 Clear CLR 71 68     90%   72 29.85        
Aug 18 06:53 SE 10 10 Thunderstorms BKN110 71 68     90%   72 29.87 29.84 0   0
Aug 18 05:53 3 8 Thunderstorms and Rain FEW050 BKN110 69 68     96%     29.94   0    
Aug 18 05:34 NW 7 3 Thunderstorms and Rain and Fog/Mist FEW019 BKN050 OVC100 69 68     96%     29.95   0    
Aug 18 05:32 NW 9 2 Thunderstorms and Rain and Fog/Mist FEW014 BKN028 OVC100 69 68     96%     29.95   0    
Aug 18 05:22   1.75 Thunderstorms and Heavy Rain and Fog/Mist FEW017 BKN034 OVC046 70 67     90%     29.95   0    
Aug 18 05:17   6 Thunderstorms and Rain and Fog/Mist FEW017 BKN038 OVC065 71 67     87%   72 29.95   0    
Aug 18 05:09   10 Thunderstorms and Rain BKN029 OVC045 74 67     79%   75 29.94   0    
Aug 18 04:58   10 Thunderstorms BKN030 OVC041 77 67     71%   78 29.92        
Aug 18 04:53   10 Cloudy BKN028 BKN037 OVC046 78 69     74%   79 29.91 29.87      
Aug 18 04:45 W 11 10 Cloudy BKN028 BKN043 OVC120 79 71     77%   82 29.9        
Aug 18 03:53 S 15 10 Mostly Cloudy BKN120 80 70     71%   83 29.83 29.79      
Aug 18 02:53 S 15 10 Clear CLR 80 70     71%   83 29.82 29.78      
Aug 18 01:53 S 14 10 Clear CLR 80 70     71%   83 29.82 29.78      
Aug 18 00:53 S 15 10 Clear CLR 81 70     69%   84 29.82 29.78     0
Aug 17 23:53 ESE 7 10 Clear CLR 80 71     74%   84 29.84 29.8      
Aug 17 23:09   10 Clear CLR 81 71     72%   85 29.8        
Aug 17 22:53 SSE 13 10 Clear CLR 79 71     77%   82 29.84 29.81      
Aug 17 21:53 SSE 6 10 Clear CLR 81 71     72%   85 29.83 29.79   0  
Aug 17 20:53 S 13 10 Clear CLR 83 71     67%   88 29.8 29.76 0    
Aug 17 19:53 S 8 10 Light Rain FEW041 FEW080 83 73     72%   89 29.8 29.76 0    
Aug 17 18:53 S 11 10 Partly Cloudy FEW070 FEW085 SCT110 86 75     70%   95 29.8 29.76     0
May 15 06:53 NNW 6 10 Clear CLR 61 60     97%     29.92 29.89     1
May 14 05:53 S 10 10 Clear CLR 69 63     81%     29.95 29.92      
May 13 10:53   10 Clear CLR 80 68     67%   83 30.03 30      
May 12 18:53 S 17 10 Clear CLR 81 65     58%   83 29.91 29.88      
May 12 08:53 S 11 10 Clear CLR 74 64     71%   74 29.96 29.93      
May 12 00:53 SSE 8 10 Clear CLR 70 61     73%     29.89 29.86      
Jun 12 01:53 S 9 10 Clear CLR 73 65     76%   74 29.92 29.88      
Jun 11 21:53 S 10 10 Clear CLR 79 65     62%   80 29.9 29.86      
Jun 11 11:53   10 Partly Cloudy SCT032 84 71     65%   89 29.94 29.9      
Jun 11 10:53   10 Clear CLR 83 70     65%   87 29.93 29.89      
Jun 10 19:53 S 15 10 Clear CLR 81 67     62%   83 29.83 29.79      
Jun 10 17:53   10 Clear CLR 85 68     57%   88 29.82 29.79      
Jun 10 11:53   10 Clear CLR 82 67     60%   85 29.9 29.86      
Jun 09 14:53 S 13 10 Partly Cloudy SCT055 80 61     52%   81 29.91 29.89      
Jun 09 00:53 SE 3 10 Clear CLR 60 55     83%     29.94 29.91      
Jun 08 23:53 S 3 10 Clear   62 56     80%     29.94 29.92      
Jun 08 12:53 WNW 5 10 Clear CLR 79 53     41%   78 30.05 30.03      
Jun 08 06:53 Calm 10 Clear CLR 56 53     90%     30.06 30.04      
Jun 07 21:53 Calm 10 Clear CLR 64 56     75%     30.05 30.02      
Jun 07 14:53 NNE 9 10 Clear CLR 81 52     37%   80 30.06 30.03      
Jun 07 11:53 E 9 10 Mostly Clear FEW060 79 49     35%   78 30.09 30.07      
Jun 06 11:53 N 5 10 Clear CLR 82 64     55%   84 29.96 29.93      
Jun 06 10:53 N 5 10 Clear CLR 79 66     65%   80 29.96 29.92      
Notice The following observation data may not be complete
Jun 06 04:02   2 Fog/Mist CLR          %              
Jun 05 19:53 Calm 10 Mostly Cloudy BKN075 84 70     63%   88 29.83 29.79